Regional Weather Roundup
Issued by NWS

Home | Current Version | Previous Version | Graphics & Text | Print | Product List | Glossary On
Versions: 1 2 3 4 5 6 7 8 9 10 11 12 13 14 15 16 17 18 19 20 21 22 23 24 25 26 27
000
ASUS45 KBOI 040110
RWRID

IDAHO REGIONAL WEATHER ROUNDUP
NATIONAL WEATHER SERVICE BOISE ID
700 PM MDT TUE MAY 03 2016

NOTE: "FAIR" INDICATES FEW OR NO CLOUDS BELOW 12000 FEET
WITH NO SIGNIFICANT WEATHER AND/OR OBSTRUCTIONS TO VISIBILITY

IDZ012-014-040200-
SOUTHWEST IDAHO


CITY           SKY/WX    TMP DP  RH WIND       PRES   REMARKS
BOISE          SUNNY     79  29  16 SE9       30.01F
CALDWELL       SUNNY     78  33  19 E10       29.99F
MOUNTAIN HOME  SUNNY     78  34  20 E12       30.02F
$$

IDZ016-017-040200-
SOUTHCENTRAL IDAHO


CITY           SKY/WX    TMP DP  RH WIND       PRES   REMARKS
BURLEY         SUNNY     72  31  22 SE10      30.09F
JEROME         SUNNY     74  32  21 NE8       30.09F
TWIN FALLS     SUNNY     73  33  23 N6        30.08F
$$

IDZ019>023-040200-
SOUTHEAST IDAHO


CITY           SKY/WX    TMP DP  RH WIND       PRES   REMARKS
IDAHO FALLS    SUNNY     72  22  15 W5        30.16F
POCATELLO      MOSUNNY   72  35  25 W8        30.14F
REXBURG        SUNNY     71  25  17 W7        30.16F
$$

IDZ006-010-011-018-031-032-040200-
CENTRAL IDAHO MOUNTAINS


CITY           SKY/WX    TMP DP  RH WIND       PRES   REMARKS
MCCALL         FAIR      66  35  31 NW10      30.11F
HAILEY         SUNNY     66  34  30 S6        30.18F
STANLEY          N/A     66  19  16 SW9       30.18F
SALMON         SUNNY     77  27  15 N3        30.00F
CHALLIS        SUNNY     74  16  11 SE10      30.08F
$$

IDZ002-004-006-007-026-040200-
NORTHERN IDAHO


CITY           SKY/WX    TMP DP  RH WIND       PRES   REMARKS
LEWISTON       SUNNY     85  40  20 E7        29.91F
LOWELL           N/A     73  49  42 CALM      29.91F
COEUR D`ALENE  SUNNY     81  39  22 SW7       29.93F
MULLAN PASS    SUNNY     64  25  22 VRB5      30.15F
$$




USA.gov is the U.S. government's official web portal to all federal, state and local government web resources and services.